Location: Newark
(11.2914°S, 14.4718°E)
Time: 03:56:14
(UTC+00:00)

Vanguard 2 - Pass Details

Date: 23 September 2019
Orbit: 554 x 2937 km, 32.9° (Epoch: 20 October)

Event Time Altitude Azimuth Distance (km) Brightness Sun altitude
Rises 19:07:10 0° 233° (SW) 5,223 12.6 -32.4°
Reaches altitude 10° 19:10:11 10° 230° (SW) 4,499 12.0 -33.1°
Maximum altitude 19:23:47 67° 148° (SSE) 2,839 10.0 -36.4°
Enters shadow 19:26:49 60° 106° (ESE) 3,058 10.1 -37.2°
